Weather History for KF05 - August, 2013

Change the Weather History Date:

Tuesday, August 20, 2013

  Actual Average Record
Temperature  
Mean Temperature 83 °F -  
Max Temperature 96 °F - - ()
Min Temperature 70 °F - - ()
Cooling Degree Days 18    
Growing Degree Days 33 (Base 50)    
Moisture  
Dew Point 59 °F    
Average Humidity 44    
Maximum Humidity 73    
Minimum Humidity 27    
Precipitation  
Precipitation 0.00 in - - ()
Sea Level Pressure  
Sea Level Pressure 30.00 in    
Wind  
Wind Speed 8 mph (SE)    
Max Wind Speed 17 mph    
Max Gust Speed 24 mph    
Visibility 10 miles    
Events      
T = Trace of Precipitation, MM = Missing Value Source: NWS Daily Summary

Daily Weather History Graph

Daily Weather History Graph

Search for Another Location

Airport or City:

Trip Planner

Search our weather history database for the weather conditions in past years. The results will help you decide how hot, cold, wet, or windy it might be!

Date:

Astronomy

Aug. 20, 2013 Rise Set
Actual Time 7:02 AM CDT 8:18 PM CDT
Civil Twilight 6:35 AM CDT 8:44 PM CDT
Nautical Twilight 6:04 AM CDT 9:15 PM CDT
Astronomical Twilight 5:32 AM CDT 9:47 PM CDT
Moon 7:53 PM CDT (8/20) 6:32 AM CDT (8/20)
Length of Visible Light 14h 08m
Length of Day
13h 15m
Full, 100% of the Moon is Illuminated
Aug 20
Full
Aug 20
Full
Aug 28
Last Quarter
Sep 5
New
Sep 12
First Quarter

Hourly Weather History & Observations

Time (CDT) Temp. Heat Index Dew Point Humidity Pressure Visibility Wind Dir Wind Speed Gust Speed Precip Events Conditions
12:35 AM 80.8 °F 81.0 °F 57.4 °F 45% 29.99 in 10.0 mi SE 8.1 mph - N/A   Clear
12:55 AM 80.4 °F 80.7 °F 57.6 °F 45% 30.00 in 10.0 mi SE 8.1 mph - N/A   Clear
1:15 AM 79.5 °F - 57.9 °F 47% 30.00 in 10.0 mi East 4.6 mph - N/A   Clear
1:35 AM 77.2 °F - 58.8 °F 53% 30.00 in 10.0 mi ESE 3.5 mph - N/A   Clear
1:55 AM 76.3 °F - 59.5 °F 56% 30.00 in 10.0 mi East 3.5 mph - N/A   Clear
2:15 AM 74.8 °F - 60.6 °F 61% 30.00 in 10.0 mi East 4.6 mph - N/A   Clear
2:35 AM 73.8 °F - 61.0 °F 64% 29.99 in 10.0 mi East 4.6 mph - N/A   Clear
2:55 AM 73.0 °F - 61.3 °F 67% 29.99 in 10.0 mi East 3.5 mph - N/A   Clear
3:35 AM 72.5 °F - 61.5 °F 68% 30.00 in 10.0 mi East 4.6 mph - N/A   Clear
3:55 AM 72.5 °F - 61.3 °F 68% 30.00 in 10.0 mi East 4.6 mph - N/A   Clear
4:15 AM 71.8 °F - 61.7 °F 70% 30.00 in 10.0 mi East 4.6 mph - N/A   Clear
4:35 AM 70.9 °F - 61.7 °F 73% 30.00 in 10.0 mi East 3.5 mph - N/A   Clear
4:55 AM 71.8 °F - 61.3 °F 70% 30.00 in 10.0 mi ESE 4.6 mph - N/A   Clear
5:15 AM 72.5 °F - 61.2 °F 67% 30.00 in 10.0 mi ESE 4.6 mph - N/A   Mostly Cloudy
5:35 AM 72.7 °F - 61.3 °F 67% 30.01 in 10.0 mi East 3.5 mph - N/A   Overcast
5:55 AM 72.3 °F - 61.5 °F 69% 30.01 in 10.0 mi East 5.8 mph - N/A   Mostly Cloudy
6:15 AM 72.3 °F - 61.5 °F 69% 30.01 in 10.0 mi East 5.8 mph - N/A   Mostly Cloudy
6:17 AM 71.6 °F - 62.6 °F 73% 30.00 in 10.0 mi East 5.8 mph - N/A   Mostly Cloudy
6:35 AM 72.3 °F - 61.3 °F 68% 30.01 in 10.0 mi ESE 5.8 mph - N/A   Mostly Cloudy
6:55 AM 72.5 °F - 60.8 °F 67% 30.01 in 10.0 mi ESE 6.9 mph - N/A   Mostly Cloudy
7:15 AM 72.7 °F - 60.6 °F 66% 30.01 in 10.0 mi ESE 6.9 mph - N/A   Mostly Cloudy
7:35 AM 73.8 °F - 60.3 °F 63% 30.02 in 10.0 mi ESE 8.1 mph - N/A   Overcast
7:55 AM 74.7 °F - 59.9 °F 60% 30.02 in 10.0 mi SE 6.9 mph - N/A   Overcast
8:15 AM 75.7 °F - 59.7 °F 57% 30.03 in 10.0 mi SE 6.9 mph - N/A   Mostly Cloudy
8:35 AM 76.6 °F - 59.9 °F 56% 30.03 in 10.0 mi SE 6.9 mph - N/A   Mostly Cloudy
8:55 AM 78.6 °F - 59.9 °F 52% 30.03 in 10.0 mi SE 9.2 mph - N/A   Scattered Clouds
9:15 AM 80.1 °F 80.8 °F 59.5 °F 49% 30.04 in 10.0 mi SSE 8.1 mph - N/A   Clear
9:35 AM 81.7 °F 82.0 °F 59.5 °F 47% 30.04 in 10.0 mi SSE 11.5 mph - N/A   Clear
10:15 AM 83.7 °F 83.6 °F 59.5 °F 44% 30.04 in 10.0 mi SSE 10.4 mph - N/A   Clear
10:35 AM - - - N/A% 30.04 in - South 12.7 mph - N/A   Unknown
10:55 AM 87.3 °F 86.7 °F 59.7 °F 39% 30.04 in 10.0 mi South 13.8 mph - N/A   Clear
11:15 AM 88.3 °F 87.8 °F 59.7 °F 38% 30.04 in 10.0 mi South 12.7 mph - N/A   Clear
11:35 AM 88.5 °F 88.1 °F 59.5 °F 38% 30.04 in 10.0 mi South 12.7 mph - N/A   Scattered Clouds
11:55 AM 90.1 °F 89.6 °F 59.7 °F 36% 30.04 in 10.0 mi South 11.5 mph 17.3 mph N/A   Scattered Clouds
12:15 PM 91.9 °F 91.2 °F 59.2 °F 33% 30.04 in 10.0 mi South 12.7 mph 17.3 mph N/A   Clear
12:35 PM 93.0 °F 92.3 °F 58.8 °F 32% 30.03 in 10.0 mi South 11.5 mph - N/A   Clear
12:55 PM 93.6 °F 92.7 °F 58.5 °F 31% 30.02 in 10.0 mi South 10.4 mph 18.4 mph N/A   Clear
1:15 PM 94.1 °F 93.1 °F 58.1 °F 30% 30.02 in 10.0 mi SE 11.5 mph 16.1 mph N/A   Clear
1:35 PM 94.8 °F 93.8 °F 58.3 °F 29% 30.01 in 10.0 mi South 12.7 mph 19.6 mph N/A   Clear
1:55 PM 95.0 °F 94.4 °F 59.0 °F 30% 30.00 in 10.0 mi SSE 12.7 mph 20.7 mph N/A   Clear
2:15 PM 95.4 °F 94.6 °F 58.6 °F 29% 30.00 in 10.0 mi SSE 13.8 mph 20.7 mph N/A   Clear
2:35 PM 95.7 °F 95.1 °F 58.3 °F 29% 29.99 in 10.0 mi SSE 8.1 mph 19.6 mph N/A   Clear
2:55 PM 95.9 °F 94.6 °F 57.4 °F 27% 29.99 in 10.0 mi SE 11.5 mph 18.4 mph N/A   Clear
3:15 PM 96.1 °F 94.8 °F 57.4 °F 27% 29.99 in 10.0 mi South 8.1 mph 17.3 mph N/A   Clear
3:35 PM 96.3 °F 95.1 °F 57.4 °F 27% 29.98 in 10.0 mi South 11.5 mph 19.6 mph N/A   Clear
3:55 PM 96.4 °F 95.3 °F 57.4 °F 27% 29.98 in 10.0 mi South 10.4 mph 18.4 mph N/A   Scattered Clouds
4:15 PM 96.4 °F 95.3 °F 57.7 °F 27% 29.97 in 10.0 mi SSE 17.3 mph 24.2 mph N/A   Clear
4:35 PM 96.6 °F 95.6 °F 57.6 °F 27% 29.97 in 10.0 mi SSE 11.5 mph 18.4 mph N/A   Clear
4:55 PM 96.6 °F 95.6 °F 57.4 °F 27% 29.97 in 10.0 mi SSW 8.1 mph 17.3 mph N/A   Clear
5:15 PM 96.4 °F 95.3 °F 57.4 °F 27% 29.96 in 10.0 mi South 11.5 mph 21.9 mph N/A   Clear
5:35 PM 96.4 °F 95.3 °F 57.6 °F 27% 29.96 in 10.0 mi South 11.5 mph 18.4 mph N/A   Scattered Clouds
5:55 PM 96.4 °F 95.3 °F 57.7 °F 27% 29.96 in 10.0 mi South 12.7 mph - N/A   Clear
6:15 PM 96.1 °F 94.8 °F 57.0 °F 27% 29.96 in 10.0 mi South 9.2 mph - N/A   Scattered Clouds
6:35 PM 95.7 °F 94.3 °F 57.2 °F 27% 29.96 in 10.0 mi South 9.2 mph - N/A   Clear
6:55 PM 95.4 °F 94.2 °F 57.4 °F 28% 29.95 in 10.0 mi SE 9.2 mph 16.1 mph N/A   Scattered Clouds
7:15 PM 95.0 °F 93.7 °F 56.7 °F 28% 29.95 in 10.0 mi SE 12.7 mph - N/A   Scattered Clouds
7:35 PM 94.1 °F 92.5 °F 56.1 °F 28% 29.96 in 10.0 mi SE 11.5 mph - N/A   Scattered Clouds
7:55 PM 93.0 °F 91.4 °F 55.9 °F 29% 29.96 in 10.0 mi SE 13.8 mph - N/A   Clear
8:15 PM 91.4 °F 89.6 °F 55.6 °F 30% 29.96 in 10.0 mi SE 9.2 mph - N/A   Clear
8:35 PM 89.8 °F 87.9 °F 55.6 °F 31% 29.97 in 10.0 mi SE 6.9 mph - N/A   Clear
8:55 PM 87.8 °F 86.3 °F 56.1 °F 34% 29.97 in 10.0 mi SE 5.8 mph - N/A   Clear
9:15 PM 85.8 °F 84.7 °F 56.5 °F 37% 29.98 in 10.0 mi SE 5.8 mph - N/A   Clear
9:35 PM 84.4 °F 83.5 °F 57.0 °F 39% 29.99 in 10.0 mi SE 5.8 mph - N/A   Clear
9:55 PM 83.3 °F 82.8 °F 57.4 °F 41% 29.99 in 10.0 mi SE 5.8 mph - N/A   Clear
10:15 PM 82.8 °F 82.4 °F 57.4 °F 42% 30.00 in 10.0 mi SE 6.9 mph - N/A   Clear
10:35 PM 82.0 °F 81.8 °F 57.6 °F 43% 30.00 in 10.0 mi SSE 6.9 mph - N/A   Clear
10:55 PM 81.5 °F 81.5 °F 57.9 °F 44% 30.01 in 10.0 mi SE 6.9 mph - N/A   Clear
11:15 PM 81.3 °F 81.4 °F 57.9 °F 45% 30.01 in 10.0 mi SSE 6.9 mph - N/A   Clear
11:35 PM 80.8 °F 81.0 °F 57.7 °F 45% 30.01 in 10.0 mi SSE 6.9 mph - N/A   Clear
11:55 PM 80.8 °F 81.1 °F 57.9 °F 46% 30.02 in 10.0 mi SSE 8.1 mph - N/A   Clear